Regional Weather Roundup
Issued by NWS

Home | Current Version | Previous Version | Graphics & Text | Print | Product List | Glossary On
Versions: 1 2 3 4 5 6 7 8 9 10 11 12 13 14 15 16 17 18 19 20 21 22 23 24 25 26 27
000
ASUS45 KCYS 150610
RWRWY

WYOMING REGIONAL WEATHER ROUNDUP
NATIONAL WEATHER SERVICE CHEYENNE WY
1100 PM MST THU DEC 14 2017

NOTE:  "FAIR" INDICATES FEW OR NO CLOUDS BELOW 12,000 FEET
WITH NO SIGNIFICANT WEATHER AND/OR OBSTRUCTIONS TO VISIBILITY.

WYZ001-150700-
YELLOWSTONE NATIONAL PARK

CITY           SKY/WX    TMP DP  RH WIND       PRES   REMARKS
LK YELLOWSTONE   N/A      6   3  87 CALM      30.31S
6HR MIN TEMP:   6; 6HR MAX TEMP:  14;

W YELLOWSTONE  NOT AVBL

$$
WYZ002>013-054>058-071-098>099-150700-
NORTHERN WYOMING

CITY           SKY/WX    TMP DP  RH WIND       PRES   REMARKS
JACKSON        NOT AVBL
CODY           FAIR      23  14  68 CALM      30.09F
GREYBULL       FAIR      25  16  68 SE5       30.16S WCI  19
6HR MIN TEMP:  24; 6HR MAX TEMP:  37;

WORLAND        FAIR      21  17  84 E7        30.15F WCI  12
6HR MIN TEMP:  20; 6HR MAX TEMP:  32;

SHERIDAN       FAIR      21  14  74 S6        30.05F WCI  13
6HR MIN TEMP:  19; 6HR MAX TEMP:  28;

BUFFALO        FAIR      31  10  41 CALM      30.06F
6HR MIN TEMP:  24; 6HR MAX TEMP:  33;

GILLETTE       FAIR      28  18  66 SW13      30.06F WCI  17
6HR MIN TEMP:  19; 6HR MAX TEMP:  30;

HULETT         FAIR      28  19  69 SW10      30.06S WCI  19
NEWCASTLE      FAIR      16  14  93 CALM      30.11F

$$
WYZ014>020-022>026-101>103-150700-
CENTRAL WYOMING

CITY           SKY/WX    TMP DP  RH WIND       PRES   REMARKS
BIG PINEY      FAIR      10   5  80 NE5       30.28S WCI   2
6HR MIN TEMP:   8; 6HR MAX TEMP:  25;

PINEDALE       FAIR       5   3  92 CALM      30.29S
DUBOIS         FAIR      32  -2  23 NW13G24   30.20R WCI  22
LANDER         FAIR      17  13  84 SE5       30.14F WCI  10
6HR MIN TEMP:  17; 6HR MAX TEMP:  30;

RIVERTON       FAIR      15  12  88 NW3       30.16F
6HR MIN TEMP:  15; 6HR MAX TEMP:  29;

CASPER         FAIR      28  16  60 SW17      30.14F WCI  16
6HR MIN TEMP:  25; 6HR MAX TEMP:  28; 6HR PCP: TRACE;

DOUGLAS        FAIR      22  16  78 NW8       30.12F WCI  12
6HR MIN TEMP:  20; 6HR MAX TEMP:  30;


$$
WYZ021-027>030-104>119-150700-
SOUTHERN WYOMING

CITY           SKY/WX    TMP DP  RH WIND       PRES   REMARKS
EVANSTON       FAIR      22  16  78 SW13      30.33S WCI  10
6HR MIN TEMP:  21; 6HR MAX TEMP:  31;

FORT BRIDGER   FAIR      32   2  27 W15       30.32S WCI  22
ROCK SPRINGS   FAIR      25  11  55 W10       30.27S WCI  15
6HR MIN TEMP:  24; 6HR MAX TEMP:  30;

DIXON          FAIR      14   9  81 CALM      30.36S
RAWLINS        FAIR      24  16  71 CALM      30.23F
6HR MIN TEMP:  18; 6HR MAX TEMP:  26;

SARATOGA       FAIR      19  10  68 S12G18    30.27S WCI   7
LARAMIE        FAIR       9   4  80 SW5       30.17F WCI   1
6HR MIN TEMP:   5; 6HR MAX TEMP:  21;

CHEYENNE       FAIR      21   8  57 W14       30.14F WCI   8
6HR MIN TEMP:  20; 6HR MAX TEMP:  26;

TORRINGTON     FAIR      18  14  84 CALM      30.14F
6HR MIN TEMP:  15; 6HR MAX TEMP:  31;

PINE BLUFFS    FAIR      12   9  85 SW5       30.17F WCI   4

$$




USA.gov is the U.S. government's official web portal to all federal, state and local government web resources and services.